Location: Olsztyn
(53.7767°N, 20.4765°E)
Time: 08:00:22
(UTC+02:00)

Vanguard 1 - Visible Passes

Search period start: 10 August 2022 00:00
Search period end: 20 August 2022 00:00
Orbit: 648 x 3833 km, 34.3° (Epoch: 09 August)

Date Brightness Start Highest point End Pass type
(mag) Time Alt. Az. Time Alt. Az. Time Alt. Az.
10 Aug 13.4 03:31:12 10° S 03:42:46 22° SE 03:57:20 10° E visible
11 Aug 13.3 03:50:00 10° S 04:02:34 27° SE 04:18:58 10° E visible
12 Aug 13.4 01:59:39 10° SE 02:03:19 11° ESE 02:07:17 10° ESE visible
12 Aug 13.2 04:09:13 10° SSW 04:22:30 31° SSE 04:40:14 10° E visible
13 Aug 13.3 02:15:17 10° SSE 02:22:47 15° SE 02:31:58 10° E visible
13 Aug 13.1 04:28:46 10° SSW 04:42:33 35° SSE 05:01:18 10° E visible
14 Aug 13.1 02:33:32 11° S 02:42:23 20° SE 02:54:28 10° E visible
15 Aug 13.0 02:52:58 13° S 03:02:08 24° SE 03:16:14 10° E visible
16 Aug 12.9 03:12:24 13° SSW 03:22:00 28° SE 03:37:36 10° E visible
17 Aug 13.1 01:19:09 10° SE 01:23:02 12° SE 01:28:07 10° ESE visible
17 Aug 12.8 03:31:50 14° SSW 03:42:01 32° SSE 03:58:43 10° E visible
18 Aug 12.9 01:38:35 14° SSE 01:42:37 16° SE 01:51:18 10° ESE visible
18 Aug 12.8 03:51:15 13° SW 04:02:08 34° SSE 04:19:39 10° ESE visible
19 Aug 12.7 01:58:00 17° SSE 02:02:20 20° SE 02:13:16 10° E visible
19 Aug 12.8 04:10:40 11° SW 04:22:22 37° SSE 04:40:27 10° ESE visible
